Location: Barcelona
(41.3830°N, 2.1830°E)
Time: 06:53:38
(UTC+01:00)

ISS - Pass Details

Date: 24 November 2020
Orbit: 418 x 420 km, 51.6° (Epoch: 04 December)

Event Time Altitude Azimuth Distance (km) Brightness Sun altitude
Rises 18:04:51 0° 243° (WSW) 2,352 2.5 -7.6°
Reaches altitude 10° 18:06:58 10° 248° (WSW) 1,491 0.8 -8.0°
Maximum altitude 18:10:16 56° 328° (NNW) 500 -3.3 -8.6°
Enters shadow 18:13:25 11° 47° (NE) 1,435 -1.6 -9.1°
